Islip, NY

10:43 AM EDT on June 22, 2017 (GMT -0400)
Long Island Mac Arthur

Weather History for KISP - May, 2013

Change the Weather History Date:

Wednesday, May 8, 2013

  Actual Average Record
Temperature  
Mean Temperature 60 °F 56 °F  
Max Temperature 66 °F 65 °F 86 °F (2000)
Min Temperature 53 °F 47 °F 37 °F (2001)
Degree Days  
Heating Degree Days 5 9  
Month to date heating degree days 84 81  
Since 1 July heating degree days 4968 5252  
Cooling Degree Days 0 0  
Month to date cooling degree days 0 0  
Year to date cooling degree days 1 2  
Growing Degree Days 10 (Base 50)    
Moisture  
Dew Point 56 °F    
Average Humidity 89    
Maximum Humidity 93    
Minimum Humidity 84    
Precipitation  
Precipitation 0.27 in 0.11 in 1.46 in (1984)
Month to date precipitation 0.27 0.94  
Year to date precipitation 12.57 16.62  
Snow  
Snow 0.00 in 0.00 in - ()
Month to date snowfall 0.0 0.0  
Since 1 July snowfall 46.9 24.8  
Snow Depth 0.00 in    
Sea Level Pressure  
Sea Level Pressure 30.04 in    
Wind  
Wind Speed 9 mph (ESE)    
Max Wind Speed 26 mph    
Max Gust Speed 33 mph    
Visibility 6 miles    
Events Fog , Rain , Thunderstorm    
T = Trace of Precipitation, MM = Missing Value Source: NWS Daily Summary

Daily Weather History Graph

Daily Weather History Graph

Search for Another Location

Airport or City:

Trip Planner

Search our weather history database for the weather conditions in past years. The results will help you decide how hot, cold, wet, or windy it might be!

Date:

Astronomy

May. 08, 2013 Rise Set
Actual Time 5:42 AM EDT 7:56 PM EDT
Civil Twilight 5:11 AM EDT 8:26 PM EDT
Nautical Twilight 4:34 AM EDT 9:04 PM EDT
Astronomical Twilight 3:53 AM EDT 9:45 PM EDT
Moon 4:49 AM EDT (5/8) 6:51 PM EDT (5/8)
Length of Visible Light 15h 14m
Length of Day
14h 14m
Waning Crescent, 2% of the Moon is Illuminated
May 8
Waning Crescent
May 9
New
May 18
First Quarter
May 25
Full
May 31
Last Quarter

Hourly Weather History & Observations

Time (EDT) Temp. Dew Point Humidity Pressure Visibility Wind Dir Wind Speed Gust Speed Precip Events Conditions
12:56 AM 57.9 °F 54.0 °F 87% 30.11 in 10.0 mi ESE 5.8 mph - N/A   Clear
1:09 AM 59.0 °F 55.4 °F 88% 30.11 in 10.0 mi ESE 8.1 mph - N/A   Mostly Cloudy
1:56 AM 59.0 °F 55.0 °F 87% 30.09 in 10.0 mi ESE 6.9 mph - N/A   Partly Cloudy
2:56 AM 61.0 °F 55.9 °F 83% 30.07 in 10.0 mi ESE 9.2 mph - N/A   Mostly Cloudy
3:56 AM 60.1 °F 55.9 °F 86% 30.06 in 10.0 mi ENE 4.6 mph - N/A   Clear
4:28 AM 60.8 °F 55.4 °F 82% 30.06 in 10.0 mi East 4.6 mph - N/A   Mostly Cloudy
4:52 AM 60.8 °F 55.4 °F 82% 30.05 in 10.0 mi East 5.8 mph - N/A   Mostly Cloudy
4:56 AM 60.1 °F 55.0 °F 83% 30.05 in 10.0 mi ENE 5.8 mph - N/A   Mostly Cloudy
5:56 AM 60.1 °F 55.0 °F 83% 30.06 in 10.0 mi East 5.8 mph - N/A   Overcast
6:56 AM 61.0 °F 55.9 °F 83% 30.08 in 10.0 mi East 8.1 mph - 0.00 in Rain Light Rain
7:56 AM 61.0 °F 57.9 °F 90% 30.07 in 10.0 mi East 9.2 mph - 0.01 in   Overcast
8:53 AM 62.6 °F 57.2 °F 82% 30.07 in 10.0 mi East 10.4 mph - 0.00 in Rain Light Rain
8:56 AM 62.1 °F 57.9 °F 86% 30.07 in 10.0 mi East 11.5 mph - 0.00 in Rain Light Rain
9:03 AM 62.6 °F 57.2 °F 82% 30.07 in 10.0 mi East 9.2 mph - 0.00 in Rain Light Rain
9:51 AM 60.8 °F 57.2 °F 88% 30.06 in 2.0 mi ESE 17.3 mph 25.3 mph 0.05 in Rain Light Rain
9:56 AM 61.0 °F 57.0 °F 87% 30.06 in 2.0 mi East 17.3 mph 25.3 mph 0.06 in Rain Rain
10:24 AM 60.8 °F 57.2 °F 88% 30.05 in 3.0 mi East 16.1 mph 23.0 mph 0.05 in Rain Light Rain
10:56 AM 62.1 °F 59.0 °F 90% 30.05 in 7.0 mi East 10.4 mph - 0.05 in Rain Light Rain
11:56 AM 66.0 °F 61.0 °F 84% 30.04 in 10.0 mi East 16.1 mph 21.9 mph 0.00 in Rain Light Rain
12:26 PM 62.6 °F 59.0 °F 88% 30.02 in 5.0 mi East 19.6 mph 31.1 mph 0.00 in Rain , Thunderstorm Light Thunderstorms and Rain
12:36 PM 62.6 °F 59.0 °F 88% 30.01 in 2.0 mi ESE 19.6 mph 28.8 mph 0.03 in Rain , Thunderstorm Thunderstorms and Rain
12:46 PM 62.6 °F 57.2 °F 82% 30.01 in 0.5 mi ESE 20.7 mph 32.2 mph 0.07 in Fog , Rain , Thunderstorm Heavy Thunderstorms and Rain
12:56 PM 61.0 °F 57.9 °F 90% 30.01 in 4.0 mi ESE 21.9 mph 33.4 mph 0.14 in Rain , Thunderstorm Light Thunderstorms and Rain
1:11 PM 60.8 °F 57.2 °F 88% 30.01 in 1.5 mi ESE 21.9 mph 33.4 mph 0.01 in Rain Light Rain
1:36 PM 59.0 °F 57.2 °F 94% 30.02 in 1.5 mi SE 17.3 mph 28.8 mph 0.01 in   Overcast
1:56 PM 60.1 °F 57.9 °F 93% 30.01 in 1.5 mi SE 15.0 mph 23.0 mph 0.01 in   Overcast
2:56 PM 62.1 °F 57.9 °F 86% 30.02 in 3.0 mi SE 12.7 mph - N/A   Overcast
3:41 PM 62.6 °F 57.2 °F 82% 30.02 in 5.0 mi SSE 9.2 mph - N/A   Haze
3:56 PM 60.1 °F 55.9 °F 86% 30.03 in 6.0 mi SE 13.8 mph - N/A   Overcast
4:56 PM 59.0 °F 57.0 °F 93% 30.01 in 0.5 mi SE 9.2 mph - 0.00 in   Light Drizzle
5:15 PM 60.8 °F 57.2 °F 88% 30.01 in 2.5 mi SSE 6.9 mph - 0.00 in   Mostly Cloudy
5:56 PM 59.0 °F 55.9 °F 90% 30.01 in 2.5 mi SSE 8.1 mph - 0.00 in   Overcast
6:56 PM 57.9 °F 55.0 °F 90% 30.00 in 8.0 mi South 5.8 mph - N/A   Mostly Cloudy
7:07 PM 57.2 °F 55.4 °F 94% 30.00 in 10.0 mi SE 6.9 mph - N/A   Mostly Cloudy
7:56 PM 55.9 °F 53.1 °F 90% 30.01 in 10.0 mi ESE 6.9 mph - N/A   Mostly Cloudy
8:04 PM 55.4 °F 53.6 °F 94% 30.02 in 0.8 mi ESE 6.9 mph - N/A   Mostly Cloudy
8:56 PM 55.0 °F 52.0 °F 89% 30.03 in 1.5 mi SE 6.9 mph - N/A   Overcast
9:56 PM 54.0 °F 52.0 °F 93% 30.04 in 0.5 mi SE 3.5 mph - N/A   Overcast
10:56 PM 53.1 °F 52.0 °F 96% 30.03 in 0.2 mi Calm Calm - N/A Fog Fog
11:51 PM 53.6 °F 51.8 °F 94% 30.01 in 2.0 mi Calm Calm - N/A   Mostly Cloudy
11:52 PM 53.1 °F 52.0 °F 96% 30.01 in 2.0 mi Calm Calm - N/A   Mostly Cloudy
11:56 PM 53.6 °F 51.8 °F 94% 30.02 in 2.5 mi Calm Calm - N/A   Mostly Cloudy